Regional Weather Roundup
Issued by NWS

Home | Current Version | Previous Version | Text Only | Print | Product List | Glossary Off
Versions: 1 2 3 4 5 6 7 8 9 10 11 12 13 14 15 16 17 18 19 20 21 22 23 24 25 26 27 28 29 30 31 32 33 34 35 36 37 38 39 40 41 42 43 44 45 46 47 48 49 50

997
ASUS43 KDMX 241501
RWRIA

WEATHER ROUNDUP FOR IOWA
NATIONAL WEATHER SERVICE DES MOINES IA
1000 AM CDT WED MAY 24 2017

NOTE: "FAIR" INDICATES FEW OR NO CLOUDS BELOW 12,000 FEET WITH NO
SIGNIFICANT WEATHER AND/OR OBSTRUCTIONS TO VISIBILITY.

* - THESE STATIONS ARE NOT NWS STATIONS...THUS NOT UNDER NWS
QUALITY CONTROL.  THEY ALSO DO NOT REPORT WEATHER SUCH
AS PRECIPITATION OR FOG.

IAZ001>003-012>014-020>022-031>034-043>046-241600-
   NORTHWEST IOWA

CITY           SKY/WX    TMP DP  RH WIND       PRES   REMARKS
CARROLL *      CLOUDY    55  52  88 N14       29.74S
CHEROKEE *     PTSUNNY   52  49  87 N9        29.77F
DENISON *      PTSUNNY   54  48  82 N10       29.77F
LE MARS *      CLOUDY    50  46  87 N9        29.81S
ORANGE CITY *  CLOUDY    50  46  87 N7        29.79S
SHELDON *      CLOUDY    50  46  87 N13         N/A
SIOUX CITY     PTSUNNY   55  50  83 NW9       29.79F
SPENCER        PTSUNNY   53  46  77 N12       29.77F
STORM LAKE *     N/A     52  46  82 N12G18    29.77S
$$

IAZ055>058-069>071-079>083-090>094-241600-
   SOUTHWEST IOWA

CITY           SKY/WX    TMP DP  RH WIND       PRES   REMARKS
ATLANTIC *     PTSUNNY   57  50  77 N17       29.73F
AUDUBON *      PTSUNNY   54  48  82 N13       29.74S
CLARINDA *     CLOUDY    57  50  77 N15       29.75S
COUNCIL BLFS *   N/A     55  50  82 NW10      29.76S
CRESTON *      CLOUDY    54  50  87 N16       29.72R
HARLAN  *      CLOUDY    55  50  82 N12G18    29.78F
LAMONI         LGT RAIN  53  51  93 N10       29.68R
RED OAK *      CLOUDY    57  48  72 NW13G20   29.74S
SHENANDOAH *   PTSUNNY   57  50  77 N12G18    29.75S
$$

IAZ047>049-059>061-072>074-084-241600-
   CENTRAL IOWA

CITY           SKY/WX    TMP DP  RH WIND       PRES   REMARKS
AMES           CLOUDY    53  50  89 N12       29.71R
ANKENY *       CLOUDY    54  50  87 N9        29.71R
BOONE *        CLOUDY    52  52 100 N15       29.71R
CHARITON *     CLOUDY    55  52  88 N9G15     29.67S
DES MOINES     CLOUDY    55  50  83 N10       29.69S
GRINNELL*      CLOUDY    54  51  89 N12       29.68S
KNOXVILLE *    LGT RAIN  54  50  87 N10       29.66S
MARSHALLTOWN   CLOUDY    53  50  89 N13       29.68S
NEWTON *       CLOUDY    54  50  87 N13       29.67S
PELLA *        CLOUDY    55  51  85 N6        29.68S
PERRY *        CLOUDY    54  50  86 N12       29.72S
$$

IAZ004>006-015-016-023>025-035-036-241600-
   NORTH CENTRAL IOWA

CITY           SKY/WX    TMP DP  RH WIND       PRES   REMARKS
ALGONA *       PTSUNNY   50  50 100 N9G16     29.76S
CLARION *      PTSUNNY   55  52  88 N14       29.73S
ESTHERVILLE    CLOUDY    49  46  90 N12       29.76F
FORT DODGE *   CLOUDY    54  48  82 N8        29.75S
MASON CITY     CLOUDY    51  47  86 N15       29.74S
FOREST CITY *  CLOUDY    52  43  71 N12       29.74S
WEBSTER CITY * CLOUDY    54  48  82 N13G20    29.71R
IOWA FALLS *   CLOUDY    54  49  85 N10       29.72S
$$

IAZ007>011-017>019-026>030-037>042-050>054-066-241600-
   NORTHEAST IOWA

CITY           SKY/WX    TMP DP  RH WIND       PRES   REMARKS
CEDAR RAPIDS   CLOUDY    54  52  93 N12       29.65R
CHARLES CITY * CLOUDY    54  50  87 NE15G21   29.71S
CLINTON *      CLOUDY    55  52  89 N14       29.63S
DECORAH *      CLOUDY    52  48  87 N8G16     29.69S
DUBUQUE        CLOUDY    52  48  86 N13       29.65S
MONTICELLO *   CLOUDY    54  50  87 N13G18    29.65S
OELWEIN *      CLOUDY    54  50  87 NE14      29.69R
WATERLOO       CLOUDY    53  48  83 NE9       29.69R
$$

IAZ064-065-067-068-078-241600-
   EAST CENTRAL IOWA

CITY           SKY/WX    TMP DP  RH WIND       PRES   REMARKS
DAVENPORT      CLOUDY    58  51  78 N12       29.62F
IOWA CITY      CLOUDY    59  52  77 NE9       29.65S
MT. PLEASANT * CLOUDY    56  50  80 N9        29.63F
MUSCATINE *    CLOUDY    55  52  88 NE6       29.63F
QUAD CITIES    CLOUDY    60  50  69 N8        29.60F
$$

IAZ062-063-075>077-085>089-095>099-241600-
   SOUTHEAST IOWA

CITY           SKY/WX    TMP DP  RH WIND       PRES   REMARKS
BURLINGTON     CLOUDY    54  52  93 N8        29.62S
FAIRFIELD *    CLOUDY    57  50  77 N12       29.64S
FORT MADISON * PTSUNNY   57  54  88 N9        29.62F
KEOKUK *       PTSUNNY   59  52  77 VRB7      29.61F
OSKALOOSA *    CLOUDY    55  50  83 N12       29.66S
OTTUMWA        CLOUDY    57  52  83 N9        29.65S
WASHINGTON *   CLOUDY    55  52  88 N8        29.65S
$$

ABBREVIATIONS USED IN REMARKS
   TC - TEMPERATURES IN CELSIUS
  WCI - WIND CHILL INDEX
   HX - HEAT INDEX
  VSB - VISIBILITY
$$





USA.gov is the U.S. government's official web portal to all federal, state and local government web resources and services.